Location: Colebrook
(42.0017°N, 73.0973°W)
Time: 07:54:12
(UTC-04:00)

Amateur Radio Satellites - All Passes

Search period start: 23 July 2014 07:24
Search period end: 24 July 2014 07:24
Location: Colebrook, 42.0017°N, 73.0973°W

Satellite Date Start Highest point End Downlink Frequencies (MHz)
Time Altitude Azimuth
STRAND 1 23 Jul 07:27:18 07:32:06 40° 262° (W) 07:36:57 ?
Hamsat 23 Jul 07:33:32 07:37:31 40° 288° (WNW) 07:41:32 145.90 MHz
KITSAT 1 23 Jul 07:40:29 07:48:32 74° 117° (ESE) 07:56:37 435.175 FM
SO-67 23 Jul 07:43:23 07:46:40 39° 98° (E) 07:49:56 435.3500 MHz FM
Lituanica SAT-1 23 Jul 07:45:25 07:46:56 16° 224° (SW) 07:48:28 437.275 MHz beacon
MaSat-1 23 Jul 08:20:18 08:25:40 86° 64° (ENE) 08:30:50 437.345 MHz
Saudisat 1A 23 Jul 08:33:04 08:36:28 22° 112° (ESE) 08:39:53 436.775 MHz
ISS 23 Jul 08:39:26 08:42:46 62° 218° (SW) 08:46:05 145.800 FM
HO-68 23 Jul 09:01:19 09:07:10 27° 94° (E) 09:12:59 435.675 MHz FM
JAS-2 23 Jul 09:01:58 09:06:01 18° 304° (NW) 09:09:48 435.800 - 435.900 CW/SSB, 435.910 FM
SO-67 23 Jul 09:17:50 09:19:24 13° 294° (WNW) 09:20:57 435.3500 MHz FM
Oscar 10/S400 23 Jul 09:18:41 09:42:12 11° 265° (W) 10:10:39 145.825 - 145.975 CW/USB, Beacon 145.810 USB
KITSAT 1 23 Jul 09:37:39 09:44:40 31° 319° (NW) 09:51:43 435.175 FM
PCSat 23 Jul 09:43:41 09:47:01 16° 40° (NE) 09:50:21 145.825 MHz
MaSat-1 23 Jul 10:00:01 10:02:15 13° 261° (W) 10:04:27 437.345 MHz
PANSAT 23 Jul 10:02:43 10:03:37 11° 183° (S) 10:04:31 not established
Oscar 11 23 Jul 10:11:21 10:15:21 35° 97° (E) 10:19:19 145.825 FM, Beacon 2401.500 USB
Saudisat 1A 23 Jul 10:11:36 10:15:48 42° 309° (NW) 10:20:01 436.775 MHz
FUNcube-1 23 Jul 10:16:12 10:18:23 14° 91° (E) 10:20:33 145.950 - 145.970 MHz USB
HO-68 23 Jul 10:48:16 10:55:16 60° 292° (WNW) 11:02:13 435.675 MHz FM
Sapphire 23 Jul 10:51:50 10:57:01 43° 53° (NE) 11:02:09 437.095 MHz 1200 baud AX-25 AFSK
PCSat 23 Jul 11:25:49 11:31:17 84° 60° (ENE) 11:36:42 145.825 MHz
KITSAT 1 23 Jul 11:39:47 11:43:14 13° 347° (NNW) 11:46:41 435.175 FM
Oscar 11 23 Jul 11:48:02 11:51:19 21° 294° (WNW) 11:54:35 145.825 FM, Beacon 2401.500 USB
FUNcube-1 23 Jul 11:51:03 11:55:04 48° 287° (WNW) 11:59:05 145.950 - 145.970 MHz USB
JAS-1B 23 Jul 12:20:16 12:24:36 14° 43° (NE) 12:29:05 435.800 - 435.900 CW/SSB
Oscar 19 23 Jul 12:20:31 12:23:52 18° 62° (ENE) 12:27:13 437.125 CW, 437.150 USB
RS-15 23 Jul 12:21:37 12:24:37 11° 95° (E) 12:27:36 29.354 - 29.394 USB, Beacon 29.352 USB
Sapphire 23 Jul 12:35:39 12:40:14 28° 251° (WSW) 12:44:47 437.095 MHz 1200 baud AX-25 AFSK
HO-68 23 Jul 12:39:00 12:41:31 12° 312° (NW) 12:44:02 435.675 MHz FM
Oscar 16 23 Jul 12:46:24 12:50:52 31° 67° (ENE) 12:55:21 437.025 USB, Beacon 2401.1428
ITAMSAT 1 23 Jul 12:55:23 12:58:53 19° 62° (ENE) 13:02:23 435.822 SSB
PCSat 23 Jul 13:11:28 13:13:56 13° 257° (WSW) 13:16:23 145.825 MHz
AO-27 23 Jul 13:11:58 13:16:14 26° 65° (ENE) 13:20:31 436.795 MHz FM
Uribyol 2 23 Jul 13:15:21 13:19:46 29° 66° (ENE) 13:24:11 436.500 FM
AO-Echo 23 Jul 13:24:27 13:29:07 33° 67° (ENE) 13:33:51 ?
SO-50 23 Jul 13:34:02 13:37:49 28° 114° (ESE) 13:41:40 436.795 FM
KITSAT 1 23 Jul 13:38:41 13:42:56 15° 19° (NNE) 13:47:10 435.175 FM
Oscar 19 23 Jul 13:57:40 14:02:43 61° 259° (W) 14:07:48 437.125 CW, 437.150 USB
JAS-1B 23 Jul 14:04:30 14:12:44 54° 65° (ENE) 14:22:03 435.800 - 435.900 CW/SSB
AO-7 23 Jul 14:15:10 14:20:27 19° 48° (NE) 14:25:45 29.400 - 29.500 MHz
TMSAT-1 23 Jul 14:18:10 14:22:45 31° 66° (ENE) 14:27:20 436.925 FM
RS-15 23 Jul 14:23:40 14:34:34 63° 115° (ESE) 14:45:14 29.354 - 29.394 USB, Beacon 29.352 USB
Oscar 16 23 Jul 14:25:37 14:30:10 32° 264° (W) 14:34:44 437.025 USB, Beacon 2401.1428
ITAMSAT 1 23 Jul 14:32:44 14:37:53 61° 259° (WSW) 14:43:04 435.822 SSB
Gurwin Techsat 1B 23 Jul 14:37:42 14:42:55 62° 73° (ENE) 14:48:11 435.225 FM
AO-27 23 Jul 14:50:37 14:55:32 41° 262° (W) 15:00:28 436.795 MHz FM
Uribyol 2 23 Jul 14:54:19 14:59:06 36° 263° (W) 15:03:54 436.500 FM
AO-Echo 23 Jul 15:03:08 15:07:50 33° 264° (W) 15:12:36 ?
SO-50 23 Jul 15:14:09 15:18:15 35° 312° (NW) 15:22:27 436.795 FM
Uosat F 23 Jul 15:16:45 15:20:50 26° 65° (ENE) 15:24:57 435.120 FM
KITSAT 1 23 Jul 15:33:28 15:41:00 40° 46° (NE) 15:48:28 435.175 FM
OPAL 23 Jul 15:46:45 15:49:33 15° 93° (E) 15:52:21 ?
JAS-1B 23 Jul 15:55:37 16:03:24 40° 267° (W) 16:12:17 435.800 - 435.900 CW/SSB
TMSAT-1 23 Jul 15:57:45 16:02:34 35° 263° (W) 16:07:24 436.925 FM
AO-7 23 Jul 16:03:35 16:11:55 76° 69° (ENE) 16:20:17 29.400 - 29.500 MHz
UOSAT-12 23 Jul 16:08:16 16:12:50 71° 121° (ESE) 16:17:31 437.025 FM, 437.400 FM
Gurwin Techsat 1B 23 Jul 16:19:57 16:23:19 17° 269° (W) 16:26:41 435.225 FM
RS-15 23 Jul 16:37:02 16:47:24 44° 319° (NW) 16:57:43 29.354 - 29.394 USB, Beacon 29.352 USB
Hamsat 23 Jul 16:53:22 16:55:34 14° 64° (ENE) 16:57:47 145.90 MHz
Uosat F 23 Jul 16:54:42 16:59:25 40° 262° (W) 17:04:10 435.120 FM
Saudisat 1A 23 Jul 16:58:47 17:02:21 23° 44° (NE) 17:05:53 436.775 MHz
OPAL 23 Jul 17:23:51 17:28:52 67° 289° (WNW) 17:33:54 ?
JAS-2 23 Jul 17:25:47 17:32:57 41° 66° (ENE) 17:39:51 435.800 - 435.900 CW/SSB, 435.910 FM
KITSAT 1 23 Jul 17:28:51 17:36:38 54° 247° (WSW) 17:44:22 435.175 FM
UOSAT-12 23 Jul 17:50:12 17:53:29 19° 320° (NW) 17:56:50 437.025 FM, 437.400 FM
AO-7 23 Jul 17:59:06 18:05:26 24° 267° (W) 18:11:49 29.400 - 29.500 MHz
SO-67 23 Jul 18:18:09 18:20:12 15° 67° (ENE) 18:22:17 435.3500 MHz FM
Hamsat 23 Jul 18:27:02 18:31:06 52° 260° (W) 18:35:12 145.90 MHz
Saudisat 1A 23 Jul 18:37:55 18:42:08 45° 242° (WSW) 18:46:18 436.775 MHz
RS-15 23 Jul 18:55:43 19:03:41 22° 352° (N) 19:11:41 29.354 - 29.394 USB, Beacon 29.352 USB
Oscar 10/S400 23 Jul 18:58:00 19:11:48 22° 140° (SE) 19:29:39 145.825 - 145.975 CW/USB, Beacon 145.810 USB
JAS-2 23 Jul 19:10:21 19:17:48 46° 263° (W) 19:25:04 435.800 - 435.900 CW/SSB, 435.910 FM
HO-68 23 Jul 19:31:21 19:36:38 23° 56° (ENE) 19:41:55 435.675 MHz FM
STRAND 1 23 Jul 19:37:07 19:42:14 68° 102° (ESE) 19:47:17 ?
SO-67 23 Jul 19:49:55 19:53:01 31° 263° (W) 19:56:10 435.3500 MHz FM
Oscar 11 23 Jul 21:06:59 21:10:44 30° 69° (ENE) 21:14:29 145.825 FM, Beacon 2401.500 USB
RS-15 23 Jul 21:11:45 21:21:01 30° 28° (NNE) 21:30:25 29.354 - 29.394 USB, Beacon 29.352 USB
FUNcube-1 23 Jul 21:13:44 21:15:56 14° 63° (ENE) 21:18:07 145.950 - 145.970 MHz USB
HO-68 23 Jul 21:16:26 21:23:36 76° 255° (WSW) 21:30:49 435.675 MHz FM
STRAND 1 23 Jul 21:17:46 21:20:51 16° 299° (WNW) 21:23:55 ?
SO-50 23 Jul 22:04:36 22:08:53 32° 47° (NE) 22:13:12 436.795 FM
MaSat-1 23 Jul 22:12:54 22:16:22 32° 106° (ESE) 22:20:22 437.345 MHz
Oscar 11 23 Jul 22:43:24 22:46:55 24° 265° (W) 22:50:27 145.825 FM, Beacon 2401.500 USB
FUNcube-1 23 Jul 22:47:32 22:51:53 59° 259° (W) 22:56:09 145.950 - 145.970 MHz USB
UOSAT-12 23 Jul 22:59:03 23:01:15 13° 34° (NE) 23:03:26 437.025 FM, 437.400 FM
HO-68 23 Jul 23:09:37 23:12:24 12° 273° (W) 23:15:12 435.675 MHz FM
RS-15 23 Jul 23:24:19 23:35:24 79° 55° (NE) 23:46:52 29.354 - 29.394 USB, Beacon 29.352 USB
SO-50 23 Jul 23:45:09 23:49:27 34° 245° (WSW) 23:53:47 436.795 FM
Lituanica SAT-1 23 Jul 23:47:31 23:49:08 18° 137° (SE) 23:50:45 437.275 MHz beacon
MaSat-1 23 Jul 23:50:21 23:53:47 25° 309° (NW) 23:57:40 437.345 MHz
UOSAT-12 24 Jul 00:37:35 00:42:19 67° 55° (NE) 00:46:58 437.025 FM, 437.400 FM
Lituanica SAT-1 24 Jul 01:20:01 01:21:52 24° 333° (NNW) 01:23:44 437.275 MHz beacon
ISS 24 Jul 01:22:12 01:25:16 34° 137° (SE) 01:28:21 145.800 FM
Sapphire 24 Jul 01:34:21 01:39:12 35° 110° (ESE) 01:44:04 437.095 MHz 1200 baud AX-25 AFSK
RS-15 24 Jul 01:37:49 01:46:40 29° 256° (WSW) 01:55:48 29.354 - 29.394 USB, Beacon 29.352 USB
JAS-1B 24 Jul 01:52:31 01:58:06 17° 82° (E) 02:03:17 435.800 - 435.900 CW/SSB
PCSat 24 Jul 02:07:42 02:13:05 73° 117° (ESE) 02:18:30 145.825 MHz
Oscar 19 24 Jul 02:08:50 02:13:48 46° 99° (E) 02:18:45 437.125 CW, 437.150 USB
UOSAT-12 24 Jul 02:19:17 02:21:54 15° 252° (WSW) 02:24:30 437.025 FM, 437.400 FM
TMSAT-1 24 Jul 02:36:00 02:37:15 11° 88° (E) 02:38:30 436.925 FM
Oscar 16 24 Jul 02:36:05 02:41:17 87° 104° (ESE) 02:46:27 437.025 USB, Beacon 2401.1428
ITAMSAT 1 24 Jul 02:45:18 02:50:18 46° 99° (E) 02:55:15 435.822 SSB
Gurwin Techsat 1B 24 Jul 02:54:11 02:58:26 24° 94° (E) 03:02:40 435.225 FM
ISS 24 Jul 02:58:53 03:01:59 35° 335° (NNW) 03:05:07 145.800 FM
OPAL 24 Jul 03:01:33 03:05:45 29° 64° (ENE) 03:09:58 ?
AO-27 24 Jul 03:02:53 03:08:06 70° 102° (ESE) 03:13:14 436.795 MHz FM
Uribyol 2 24 Jul 03:06:07 03:11:19 78° 103° (ESE) 03:16:27 436.500 FM
AO-Echo 24 Jul 03:09:35 03:14:47 84° 103° (ESE) 03:19:46 ?
Sapphire 24 Jul 03:17:38 03:22:35 36° 309° (NW) 03:27:34 437.095 MHz 1200 baud AX-25 AFSK
JAS-1B 24 Jul 03:40:29 03:50:15 78° 103° (ESE) 03:58:43 435.800 - 435.900 CW/SSB
Oscar 19 24 Jul 03:48:52 03:52:50 23° 296° (WNW) 03:56:49 437.125 CW, 437.150 USB
PCSat 24 Jul 03:53:05 03:57:04 20° 316° (NW) 04:01:04 145.825 MHz
AO-7 24 Jul 04:05:53 04:12:17 24° 93° (E) 04:18:36 29.400 - 29.500 MHz
TMSAT-1 24 Jul 04:12:33 04:17:53 90° 285° (WNW) 04:23:10 436.925 FM
Oscar 16 24 Jul 04:17:38 04:19:54 13° 301° (WNW) 04:22:10 437.025 USB, Beacon 2401.1428
ITAMSAT 1 24 Jul 04:25:29 04:29:29 23° 296° (WNW) 04:33:28 435.822 SSB
Gurwin Techsat 1B 24 Jul 04:33:33 04:38:35 44° 290° (WNW) 04:43:34 435.225 FM
ISS 24 Jul 04:37:14 04:39:28 16° 355° (N) 04:41:41 145.800 FM
OPAL 24 Jul 04:40:03 04:44:32 34° 261° (W) 04:49:02 ?
AO-27 24 Jul 04:43:54 04:47:01 16° 300° (WNW) 04:50:07 436.795 MHz FM
Uribyol 2 24 Jul 04:47:24 04:50:07 15° 301° (WNW) 04:52:51 436.500 FM
AO-Echo 24 Jul 04:50:24 04:52:46 13° 302° (WNW) 04:55:06 ?
Uosat F 24 Jul 05:01:38 05:06:37 61° 102° (ESE) 05:11:34 435.120 FM
STRAND 1 24 Jul 05:17:30 05:20:03 14° 59° (ENE) 05:22:36 ?
JAS-1B 24 Jul 05:31:50 05:39:40 29° 305° (NW) 05:46:51 435.800 - 435.900 CW/SSB
TMSAT-1 24 Jul 05:54:44 05:57:01 13° 302° (WNW) 05:59:18 436.925 FM
AO-7 24 Jul 05:57:27 06:05:47 75° 291° (WNW) 06:14:03 29.400 - 29.500 MHz
Lituanica SAT-1 24 Jul 06:00:07 06:02:11 38° 30° (NNE) 06:04:14 437.275 MHz beacon
KITSAT 1 24 Jul 06:04:18 06:10:08 22° 103° (ESE) 06:15:58 435.175 FM
Hamsat 24 Jul 06:12:37 06:16:13 26° 95° (E) 06:19:48 145.90 MHz
ISS 24 Jul 06:14:30 06:17:07 20° 15° (NNE) 06:19:44 145.800 FM
JAS-2 24 Jul 06:21:16 06:26:24 27° 91° (E) 06:31:05 435.800 - 435.900 CW/SSB, 435.910 FM
MaSat-1 24 Jul 06:31:06 06:34:23 16° 45° (NE) 06:37:38 437.345 MHz
Uosat F 24 Jul 06:41:41 06:44:54 17° 299° (WNW) 06:48:07 435.120 FM
STRAND 1 24 Jul 06:53:23 06:58:33 82° 256° (WSW) 07:03:44 ?
SO-67 24 Jul 07:14:01 07:16:17 16° 93° (E) 07:18:33 435.3500 MHz FM
